,,PA_Meas_PMT16A,,PR_Meas_QMR101_102,,RH_Meas_QMH101,,SR_Meas_QMS101,,TA_Meas_QMH101,,GenWind,,GenWind,
time,status,PA,status,PR,status,RH,status,SR,status,TA,status,DirAvg,status,SpdAvg,
2012-05-20, 00:00:04,VALID,917.129,VALID,0,VALID,96.8098,VALID,0,VALID,21.8257,VALID,16,VALID,0.0191406,
2012-05-20, 00:01:04,VALID,917.115,VALID,0,VALID,96.7945,VALID,0,VALID,21.7867,VALID,16,VALID,0.0015625,
2012-05-20, 00:02:04,VALID,917.11,VALID,0,VALID,96.8021,VALID,0,VALID,21.7672,VALID,17,VALID,0,
2012-05-20, 00:03:04,VALID,917.096,VALID,0,VALID,96.825,VALID,0,VALID,21.7672,VALID,17,VALID,0,
2012-05-20, 00:04:04,VALID,917.086,VALID,0,VALID,96.8403,VALID,0,VALID,21.7672,VALID,17,VALID,0,
2012-05-20, 00:05:04,VALID,917.074,VALID,0,VALID,96.8479,VALID,0,VALID,21.7867,VALID,16,VALID,0,
2012-05-20, 00:06:04,VALID,917.047,VALID,0,VALID,96.8555,VALID,0,VALID,21.8045,VALID,16,VALID,0.0640625,
2012-05-20, 00:07:04,VALID,917.034,VALID,0,VALID,96.8555,VALID,0,VALID,21.8062,VALID,16,VALID,0.00976563,
2012-05-20, 00:08:04,VALID,917.059,VALID,0,VALID,96.8631,VALID,0.107441,VALID,21.8257,VALID,17,VALID,0,
2012-05-20, 00:09:04,VALID,917.057,VALID,0,VALID,96.8784,VALID,0,VALID,21.8257,VALID,16,VALID,0,
2012-05-20, 00:10:04,VALID,917.042,VALID,0,VALID,96.8707,VALID,0,VALID,21.7867,VALID,17,VALID,0,
2012-05-20, 00:11:04,VALID,917.022,VALID,0,VALID,96.8631,VALID,0,VALID,21.7867,VALID,16,VALID,0,
2012-05-20, 00:12:04,VALID,917.022,VALID,0,VALID,96.8631,VALID,0,VALID,21.785,VALID,16,VALID,0,
2012-05-20, 00:13:04,VALID,917.002,VALID,0,VALID,96.8707,VALID,0,VALID,21.7867,VALID,16,VALID,0,
2012-05-20, 00:14:04,VALID,916.961,VALID,0,VALID,96.8707,VALID,0,VALID,21.7672,VALID,16,VALID,0,
2012-05-20, 00:15:04,VALID,916.972,VALID,0,VALID,96.8631,VALID,0,VALID,21.7087,VALID,16,VALID,0,
2012-05-20, 00:16:04,VALID,916.947,VALID,0,VALID,96.8631,VALID,0,VALID,21.7087,VALID,16,VALID,0.0917969,
2012-05-20, 00:17:04,VALID,916.908,VALID,0,VALID,96.8326,VALID,0.107441,VALID,21.6891,VALID,17,VALID,0.145313,
2012-05-20, 00:18:04,VALID,916.885,VALID,0,VALID,96.8174,VALID,0,VALID,21.6696,VALID,17,VALID,0.0171875,
2012-05-20, 00:19:04,VALID,916.873,VALID,0,VALID,96.8403,VALID,0,VALID,21.7087,VALID,17,VALID,0,
2012-05-20, 00:20:04,VALID,916.834,VALID,0,VALID,96.825,VALID,0,VALID,21.6891,VALID,16,VALID,0,
2012-05-20, 00:21:04,VALID,916.798,VALID,0,VALID,96.8326,VALID,0,VALID,21.6891,VALID,16,VALID,0,
2012-05-20, 00:22:04,VALID,916.745,VALID,0,VALID,96.8098,VALID,0,VALID,21.6891,VALID,16,VALID,0.046875,
2012-05-20, 00:23:04,VALID,916.724,VALID,0,VALID,96.7945,VALID,0,VALID,21.6696,VALID,17,VALID,0,
2012-05-20, 00:24:04,VALID,916.684,VALID,0,VALID,96.7793,VALID,0,VALID,21.6696,VALID,17,VALID,0,
2012-05-20, 00:25:04,VALID,916.675,VALID,0,VALID,96.7793,VALID,0,VALID,21.6696,VALID,17,VALID,0.015625,
2012-05-20, 00:26:04,VALID,916.647,VALID,0,VALID,96.7869,VALID,0,VALID,21.7087,VALID,17,VALID,0,
2012-05-20, 00:27:04,VALID,916.638,VALID,0,VALID,96.7716,VALID,0,VALID,21.6891,VALID,16,VALID,0,
2012-05-20, 00:28:04,VALID,916.649,VALID,0,VALID,96.7259,VALID,0,VALID,21.6891,VALID,16,VALID,0.527344,
2012-05-20, 00:29:04,VALID,916.611,VALID,0,VALID,96.7488,VALID,0,VALID,21.7087,VALID,17,VALID,0.505469,
2012-05-20, 00:30:04,VALID,916.626,VALID,0,VALID,96.7335,VALID,0,VALID,21.7087,VALID,17,VALID,0.296875,
2012-05-20, 00:31:04,VALID,916.646,VALID,0,VALID,96.7259,VALID,0,VALID,21.6891,VALID,16,VALID,0.172656,
2012-05-20, 00:32:04,VALID,916.694,VALID,0,VALID,96.6954,VALID,0,VALID,21.6501,VALID,17,VALID,0.05625,
2012-05-20, 00:33:04,VALID,916.686,VALID,0,VALID,96.6649,VALID,0,VALID,21.6696,VALID,17,VALID,0,
2012-05-20, 00:34:04,VALID,916.711,VALID,0,VALID,96.6954,VALID,0,VALID,21.6696,VALID,16,VALID,0,
2012-05-20, 00:35:04,VALID,916.734,VALID,0,VALID,96.6802,VALID,0,VALID,21.6891,VALID,16,VALID,0,
2012-05-20, 00:36:04,VALID,916.687,VALID,0,VALID,96.6497,VALID,0,VALID,21.6891,VALID,17,VALID,0.0546875,
2012-05-20, 00:37:04,VALID,916.672,VALID,0,VALID,96.5734,VALID,0,VALID,21.6501,VALID,17,VALID,0,
2012-05-20, 00:38:04,VALID,916.655,VALID,0,VALID,96.5582,VALID,0,VALID,21.6696,VALID,16,VALID,0.281641,
2012-05-20, 00:39:04,VALID,916.653,VALID,0,VALID,96.4667,VALID,0,VALID,21.6306,VALID,16,VALID,0.288672,
2012-05-20, 00:40:04,VALID,916.605,VALID,0,VALID,96.5887,VALID,0,VALID,21.7103,VALID,17,VALID,0.496484,
2012-05-20, 00:41:04,VALID,916.6,VALID,0,VALID,96.5124,VALID,0,VALID,21.7087,VALID,14,VALID,0.540234,
2012-05-20, 00:42:04,VALID,916.6,VALID,0,VALID,96.4057,VALID,0,VALID,21.7087,VALID,14,VALID,0.496875,
2012-05-20, 00:43:04,VALID,916.576,VALID,0,VALID,96.3981,VALID,0,VALID,21.7087,VALID,14,VALID,0.396094,
2012-05-20, 00:44:04,VALID,916.574,VALID,0,VALID,96.3142,VALID,0,VALID,21.6891,VALID,14,VALID,0.404687,
2012-05-20, 00:45:04,VALID,916.569,VALID,0,VALID,96.3142,VALID,0.107441,VALID,21.6891,VALID,14,VALID,0.347656,
2012-05-20, 00:46:04,VALID,916.598,VALID,0,VALID,96.3676,VALID,0,VALID,21.6696,VALID,14,VALID,0.427344,
2012-05-20, 00:47:04,VALID,916.626,VALID,0,VALID,96.3981,VALID,0,VALID,21.7103,VALID,14,VALID,0.335156,
2012-05-20, 00:48:04,VALID,916.621,VALID,0,VALID,96.4515,VALID,0,VALID,21.7282,VALID,14,VALID,0.371094,
2012-05-20, 00:49:04,VALID,916.652,VALID,0,VALID,96.2761,VALID,0,VALID,21.6891,VALID,14,VALID,0.740625,
2012-05-20, 00:50:04,VALID,916.636,VALID,0,VALID,96.2456,VALID,0,VALID,21.6891,VALID,14,VALID,0.417578,
2012-05-20, 00:51:04,VALID,916.624,VALID,0,VALID,96.2304,VALID,0,VALID,21.6891,VALID,14,VALID,0.721484,
2012-05-20, 00:52:04,VALID,916.612,VALID,0,VALID,96.1999,VALID,0,VALID,21.6696,VALID,14,VALID,0.246484,
2012-05-20, 00:53:04,VALID,916.609,VALID,0,VALID,96.2456,VALID,0.107441,VALID,21.6696,VALID,14,VALID,0.764063,
2012-05-20, 00:54:04,VALID,916.604,VALID,0,VALID,96.238,VALID,0,VALID,21.6891,VALID,14,VALID,0.149219,
2012-05-20, 00:55:04,VALID,916.597,VALID,0,VALID,96.1923,VALID,0,VALID,21.6891,VALID,12,VALID,0.354297,
2012-05-20, 00:56:04,VALID,916.576,VALID,0,VALID,96.0703,VALID,0,VALID,21.6696,VALID,4,VALID,0.766797,
2012-05-20, 00:57:04,VALID,916.547,VALID,0,VALID,95.9941,VALID,0,VALID,21.6518,VALID,3,VALID,0.855078,
2012-05-20, 00:58:04,VALID,916.555,VALID,0,VALID,95.9483,VALID,0.107441,VALID,21.6111,VALID,3,VALID,0.716797,
2012-05-20, 00:59:04,VALID,916.562,VALID,0,VALID,95.8797,VALID,0,VALID,21.6306,VALID,3,VALID,1.13047,
2012-05-20, 01:00:04,VALID,916.501,VALID,0,VALID,95.8111,VALID,0,VALID,21.5916,VALID,3,VALID,0.657812,
2012-05-20, 01:01:04,VALID,916.551,VALID,0,VALID,95.8187,VALID,0,VALID,21.5721,VALID,3,VALID,0.615625,
2012-05-20, 01:02:04,VALID,916.521,VALID,0,VALID,95.8492,VALID,0,VALID,21.5916,VALID,3,VALID,0.885547,
2012-05-20, 01:03:04,VALID,916.554,VALID,0,VALID,95.7882,VALID,0,VALID,21.5916,VALID,3,VALID,1.11445,
2012-05-20, 01:04:04,VALID,916.516,VALID,0,VALID,95.8797,VALID,0,VALID,21.6111,VALID,3,VALID,0.770312,
2012-05-20, 01:05:04,VALID,916.538,VALID,0,VALID,95.895,VALID,0,VALID,21.6111,VALID,3,VALID,0.574219,
2012-05-20, 01:06:04,VALID,916.512,VALID,0,VALID,95.9026,VALID,0,VALID,21.6306,VALID,3,VALID,1.19687,
2012-05-20, 01:07:04,VALID,916.517,VALID,0,VALID,95.7349,VALID,0,VALID,21.6111,VALID,32,VALID,1.24258,
2012-05-20, 01:08:04,VALID,916.499,VALID,0,VALID,95.7882,VALID,0,VALID,21.5916,VALID,357,VALID,0.689844,
2012-05-20, 01:09:04,VALID,916.493,VALID,0,VALID,95.773,VALID,0,VALID,21.5721,VALID,357,VALID,0.300391,
2012-05-20, 01:10:04,VALID,916.495,VALID,0,VALID,95.6815,VALID,0,VALID,21.5331,VALID,333,VALID,1.34102,
2012-05-20, 01:11:04,VALID,916.48,VALID,0,VALID,95.7425,VALID,0,VALID,21.5136,VALID,333,VALID,1.23867,
2012-05-20, 01:12:04,VALID,916.485,VALID,0,VALID,95.6739,VALID,0,VALID,21.4941,VALID,357,VALID,1.45898,
2012-05-20, 01:13:04,VALID,916.451,VALID,0,VALID,95.6967,VALID,0,VALID,21.4941,VALID,351,VALID,1.30234,
2012-05-20, 01:14:04,VALID,916.473,VALID,0,VALID,95.6586,VALID,0,VALID,21.4746,VALID,357,VALID,1.20234,
2012-05-20, 01:15:04,VALID,916.455,VALID,0,VALID,95.7196,VALID,0,VALID,21.4746,VALID,355,VALID,1.01211,
2012-05-20, 01:16:04,VALID,916.459,VALID,0,VALID,95.7425,VALID,0,VALID,21.4746,VALID,16,VALID,1.03516,
2012-05-20, 01:17:04,VALID,916.429,VALID,0,VALID,95.651,VALID,0,VALID,21.4746,VALID,352,VALID,1.18906,
2012-05-20, 01:18:04,VALID,916.419,VALID,0,VALID,95.7272,VALID,0,VALID,21.455,VALID,21,VALID,0.895703,
2012-05-20, 01:19:04,VALID,916.452,VALID,0,VALID,95.6967,VALID,0,VALID,21.455,VALID,15,VALID,1.79805,
2012-05-20, 01:20:04,VALID,916.426,VALID,0,VALID,95.6434,VALID,0,VALID,21.416,VALID,354,VALID,1.55703,
2012-05-20, 01:21:04,VALID,916.442,VALID,0,VALID,95.7425,VALID,0,VALID,21.4372,VALID,21,VALID,1.31289,
2012-05-20, 01:22:04,VALID,916.435,VALID,0,VALID,95.8187,VALID,0,VALID,21.4567,VALID,1,VALID,1.03437,
2012-05-20, 01:23:04,VALID,916.444,VALID,0,VALID,95.9102,VALID,0,VALID,21.455,VALID,31,VALID,1.06758,
2012-05-20, 01:24:04,VALID,916.456,VALID,0,VALID,95.9026,VALID,0,VALID,21.455,VALID,31,VALID,1.10156,
2012-05-20, 01:25:04,VALID,916.42,VALID,0,VALID,95.9026,VALID,0,VALID,21.4746,VALID,31,VALID,0.721094,
2012-05-20, 01:26:04,VALID,916.388,VALID,0,VALID,95.8721,VALID,0,VALID,21.4957,VALID,15,VALID,0.979688,
2012-05-20, 01:27:04,VALID,916.392,VALID,0,VALID,95.8797,VALID,0,VALID,21.455,VALID,24,VALID,1.35547,
2012-05-20, 01:28:04,VALID,916.409,VALID,0,VALID,95.8492,VALID,0,VALID,21.4567,VALID,13,VALID,1.39297,
2012-05-20, 01:29:04,VALID,916.361,VALID,0,VALID,95.9102,VALID,0,VALID,21.4355,VALID,34,VALID,1.75742,
2012-05-20, 01:30:04,VALID,916.357,VALID,0,VALID,95.7806,VALID,0,VALID,21.4355,VALID,18,VALID,2.01328,
2012-05-20, 01:31:04,VALID,916.369,VALID,0,VALID,95.8416,VALID,0,VALID,21.416,VALID,3,VALID,0.937891,
2012-05-20, 01:32:04,VALID,916.355,VALID,0,VALID,95.8035,VALID,0,VALID,21.3965,VALID,3,VALID,0.759375,
2012-05-20, 01:33:04,VALID,916.361,VALID,0,VALID,95.8645,VALID,0,VALID,21.4372,VALID,3,VALID,0.210938,
2012-05-20, 01:34:04,VALID,916.357,VALID,0,VALID,95.8721,VALID,0,VALID,21.4177,VALID,3,VALID,0.541797,
2012-05-20, 01:35:04,VALID,916.354,VALID,0,VALID,95.9254,VALID,0,VALID,21.4177,VALID,2,VALID,0.160938,
2012-05-20, 01:36:04,VALID,916.354,VALID,0,VALID,95.9254,VALID,0,VALID,21.4567,VALID,3,VALID,0.265625,
2012-05-20, 01:37:04,VALID,916.367,VALID,0,VALID,96.0017,VALID,0,VALID,21.416,VALID,3,VALID,0.186719,
2012-05-20, 01:38:04,VALID,916.366,VALID,0,VALID,95.9941,VALID,0,VALID,21.4567,VALID,2,VALID,0.075,
2012-05-20, 01:39:04,VALID,916.357,VALID,0,VALID,95.9941,VALID,0,VALID,21.4355,VALID,2,VALID,0.028125,
2012-05-20, 01:40:04,VALID,916.38,VALID,0,VALID,95.9102,VALID,0,VALID,21.4355,VALID,3,VALID,0.19375,
2012-05-20, 01:41:04,VALID,916.355,VALID,0,VALID,95.9331,VALID,0,VALID,21.4355,VALID,2,VALID,0.317578,
2012-05-20, 01:42:04,VALID,916.343,VALID,0,VALID,96.0169,VALID,0,VALID,21.4762,VALID,3,VALID,0.257813,
2012-05-20, 01:43:04,VALID,916.316,VALID,0,VALID,95.9026,VALID,0,VALID,21.4762,VALID,2,VALID,0,
2012-05-20, 01:44:04,VALID,916.302,VALID,0,VALID,95.8873,VALID,0,VALID,21.4355,VALID,3,VALID,0.182422,
2012-05-20, 01:45:04,VALID,916.308,VALID,0,VALID,96.0017,VALID,0,VALID,21.4957,VALID,2,VALID,0,
2012-05-20, 01:46:04,VALID,916.298,VALID,0,VALID,96.0017,VALID,0,VALID,21.4746,VALID,2,VALID,0,
2012-05-20, 01:47:04,VALID,916.304,VALID,0,VALID,96.0322,VALID,0,VALID,21.5152,VALID,2,VALID,0,
2012-05-20, 01:48:04,VALID,916.28,VALID,0,VALID,96.055,VALID,0,VALID,21.5331,VALID,2,VALID,0,
2012-05-20, 01:49:04,VALID,916.27,VALID,0,VALID,95.9102,VALID,0,VALID,21.5136,VALID,2,VALID,0,
2012-05-20, 01:50:04,VALID,916.29,VALID,0,VALID,95.8873,VALID,0,VALID,21.4941,VALID,3,VALID,0.487109,
2012-05-20, 01:51:04,VALID,916.277,VALID,0,VALID,95.895,VALID,0,VALID,21.4941,VALID,3,VALID,0.330078,
2012-05-20, 01:52:04,VALID,916.295,VALID,0,VALID,95.9483,VALID,0,VALID,21.455,VALID,3,VALID,0,
2012-05-20, 01:53:04,VALID,916.256,VALID,0,VALID,95.9636,VALID,0,VALID,21.5347,VALID,3,VALID,0.0636719,
2012-05-20, 01:54:04,VALID,916.281,VALID,0,VALID,95.8645,VALID,0,VALID,21.4746,VALID,3,VALID,0.241406,
2012-05-20, 01:55:04,VALID,916.238,VALID,0,VALID,95.8416,VALID,0,VALID,21.455,VALID,3,VALID,0.351953,
2012-05-20, 01:56:04,VALID,916.233,VALID,0,VALID,95.8263,VALID,0,VALID,21.4355,VALID,3,VALID,0.280859,
2012-05-20, 01:57:04,VALID,916.231,VALID,0,VALID,95.8416,VALID,0,VALID,21.3965,VALID,3,VALID,0.234766,
2012-05-20, 01:58:04,VALID,916.261,VALID,0,VALID,95.8873,VALID,0,VALID,21.3965,VALID,3,VALID,0.441406,
2012-05-20, 01:59:04,VALID,916.227,VALID,0,VALID,95.8797,VALID,0,VALID,21.377,VALID,3,VALID,0.545703,
2012-05-20, 02:00:04,VALID,916.214,VALID,0,VALID,95.9178,VALID,0,VALID,21.377,VALID,3,VALID,0.6375,
2012-05-20, 02:01:04,VALID,916.205,VALID,0,VALID,95.9788,VALID,0,VALID,21.3965,VALID,3,VALID,0.504687,
2012-05-20, 02:02:04,VALID,916.225,VALID,0,VALID,95.9864,VALID,0,VALID,21.3965,VALID,3,VALID,0.553125,
2012-05-20, 02:03:04,VALID,916.237,VALID,0,VALID,95.9864,VALID,0,VALID,21.3965,VALID,3,VALID,0.0789063,
2012-05-20, 02:04:04,VALID,916.254,VALID,0,VALID,95.9559,VALID,0,VALID,21.377,VALID,3,VALID,0.283984,
2012-05-20, 02:05:04,VALID,916.236,VALID,0,VALID,95.9712,VALID,0,VALID,21.3981,VALID,3,VALID,0.217187,
2012-05-20, 02:06:04,VALID,916.232,VALID,0,VALID,95.9788,VALID,0,VALID,21.3965,VALID,3,VALID,0.173047,
2012-05-20, 02:07:04,VALID,916.21,VALID,0,VALID,95.9559,VALID,0,VALID,21.3575,VALID,3,VALID,0.567969,
2012-05-20, 02:08:04,VALID,916.211,VALID,0,VALID,96.1008,VALID,0,VALID,21.4177,VALID,3,VALID,0.466406,
2012-05-20, 02:09:04,VALID,916.194,VALID,0,VALID,96.055,VALID,0,VALID,21.4372,VALID,3,VALID,0.155078,
2012-05-20, 02:10:04,VALID,916.17,VALID,0,VALID,95.9407,VALID,0,VALID,21.3949,VALID,2,VALID,0,
2012-05-20, 02:11:04,VALID,916.142,VALID,0,VALID,95.8492,VALID,0,VALID,21.3965,VALID,2,VALID,0,
2012-05-20, 02:12:04,VALID,916.111,VALID,0,VALID,95.9102,VALID,0,VALID,21.416,VALID,3,VALID,0,
2012-05-20, 02:13:04,VALID,916.065,VALID,0,VALID,95.8568,VALID,0.107441,VALID,21.416,VALID,3,VALID,0,
2012-05-20, 02:14:04,VALID,916.05,VALID,0,VALID,95.7654,VALID,0,VALID,21.4372,VALID,2,VALID,0,
2012-05-20, 02:15:04,VALID,916.032,VALID,0,VALID,95.7196,VALID,0,VALID,21.4177,VALID,3,VALID,0,
2012-05-20, 02:16:04,VALID,916.028,VALID,0,VALID,95.6967,VALID,0,VALID,21.3981,VALID,2,VALID,0,
2012-05-20, 02:17:04,VALID,916.013,VALID,0,VALID,95.7044,VALID,0,VALID,21.377,VALID,3,VALID,0,
2012-05-20, 02:18:04,VALID,916.015,VALID,0,VALID,95.6662,VALID,0,VALID,21.377,VALID,3,VALID,0,
2012-05-20, 02:19:04,VALID,916.012,VALID,0,VALID,95.6891,VALID,0,VALID,21.3575,VALID,2,VALID,0,
2012-05-20, 02:20:04,VALID,916.015,VALID,0,VALID,95.712,VALID,0,VALID,21.3981,VALID,3,VALID,0,
2012-05-20, 02:21:04,VALID,916.004,VALID,0,VALID,95.6891,VALID,0,VALID,21.3754,VALID,2,VALID,0,
2012-05-20, 02:22:04,VALID,915.98,VALID,0,VALID,95.6815,VALID,0,VALID,21.377,VALID,2,VALID,0,
2012-05-20, 02:23:04,VALID,915.965,VALID,0,VALID,95.6891,VALID,0,VALID,21.377,VALID,2,VALID,0,
2012-05-20, 02:24:04,VALID,915.97,VALID,0,VALID,95.6967,VALID,0,VALID,21.377,VALID,2,VALID,0,
2012-05-20, 02:25:04,VALID,915.965,VALID,0,VALID,95.7425,VALID,0,VALID,21.3965,VALID,2,VALID,0,
2012-05-20, 02:26:04,VALID,915.942,VALID,0,VALID,95.7577,VALID,0,VALID,21.455,VALID,2,VALID,0,
2012-05-20, 02:27:04,VALID,915.969,VALID,0,VALID,95.6967,VALID,0,VALID,21.455,VALID,2,VALID,0,
2012-05-20, 02:28:04,VALID,915.97,VALID,0,VALID,95.6281,VALID,0,VALID,21.455,VALID,3,VALID,0.297656,
2012-05-20, 02:29:04,VALID,915.952,VALID,0,VALID,95.5367,VALID,0,VALID,21.455,VALID,3,VALID,0.046875,
2012-05-20, 02:30:04,VALID,915.952,VALID,0,VALID,95.468,VALID,0.107441,VALID,21.4746,VALID,2,VALID,0,
2012-05-20, 02:31:04,VALID,915.96,VALID,0,VALID,95.4528,VALID,0,VALID,21.4746,VALID,2,VALID,0.00351562,
2012-05-20, 02:32:04,VALID,915.983,VALID,0,VALID,95.3994,VALID,0,VALID,21.4746,VALID,2,VALID,0.000390625,
2012-05-20, 02:33:04,VALID,915.987,VALID,0,VALID,95.3384,VALID,0.107441,VALID,21.4941,VALID,2,VALID,0,
2012-05-20, 02:34:04,VALID,915.98,VALID,0,VALID,95.3003,VALID,0.107441,VALID,21.4941,VALID,2,VALID,0,
2012-05-20, 02:35:04,VALID,915.994,VALID,0,VALID,95.3079,VALID,0,VALID,21.5136,VALID,2,VALID,0,
2012-05-20, 02:36:04,VALID,915.995,VALID,0,VALID,95.2927,VALID,0,VALID,21.5136,VALID,2,VALID,0,
2012-05-20, 02:37:04,VALID,915.987,VALID,0,VALID,95.2851,VALID,0.107441,VALID,21.4941,VALID,2,VALID,0,
2012-05-20, 02:38:04,VALID,915.938,VALID,0,VALID,95.3079,VALID,0,VALID,21.4941,VALID,3,VALID,0,
2012-05-20, 02:39:04,VALID,915.893,VALID,0,VALID,95.3613,VALID,0.107441,VALID,21.5136,VALID,2,VALID,0,
2012-05-20, 02:40:04,VALID,915.889,VALID,0,VALID,95.2851,VALID,0,VALID,21.4941,VALID,2,VALID,0,
2012-05-20, 02:41:04,VALID,915.885,VALID,0,VALID,95.3156,VALID,0,VALID,21.4746,VALID,2,VALID,0,
2012-05-20, 02:42:04,VALID,915.883,VALID,0,VALID,95.3384,VALID,0,VALID,21.4746,VALID,2,VALID,0,
2012-05-20, 02:43:04,VALID,915.889,VALID,0,VALID,95.3232,VALID,0,VALID,21.455,VALID,2,VALID,0,
2012-05-20, 02:44:04,VALID,915.859,VALID,0,VALID,95.3308,VALID,0,VALID,21.455,VALID,3,VALID,0,
2012-05-20, 02:45:04,VALID,915.868,VALID,0,VALID,95.3537,VALID,0,VALID,21.4355,VALID,2,VALID,0,
2012-05-20, 02:46:04,VALID,915.814,VALID,0,VALID,95.3079,VALID,0,VALID,21.3965,VALID,3,VALID,0,
2012-05-20, 02:47:04,VALID,915.831,VALID,0,VALID,95.3766,VALID,0,VALID,21.3965,VALID,3,VALID,0,
2012-05-20, 02:48:04,VALID,915.791,VALID,0,VALID,95.3766,VALID,0.107441,VALID,21.377,VALID,3,VALID,0,
2012-05-20, 02:49:04,VALID,915.776,VALID,0,VALID,95.468,VALID,0,VALID,21.3575,VALID,3,VALID,0,
2012-05-20, 02:50:04,VALID,915.797,VALID,0,VALID,95.4452,VALID,0,VALID,21.3396,VALID,2,VALID,0,
2012-05-20, 02:51:04,VALID,915.755,VALID,0,VALID,95.4909,VALID,0,VALID,21.3396,VALID,2,VALID,0,
2012-05-20, 02:52:04,VALID,915.744,VALID,0,VALID,95.4985,VALID,0,VALID,21.3006,VALID,2,VALID,0,
2012-05-20, 02:53:04,VALID,915.699,VALID,0,VALID,95.5519,VALID,0,VALID,21.2795,VALID,2,VALID,0,
2012-05-20, 02:54:04,VALID,915.685,VALID,0,VALID,95.5824,VALID,0.107441,VALID,21.26,VALID,3,VALID,0,
2012-05-20, 02:55:04,VALID,915.653,VALID,0,VALID,95.5519,VALID,0,VALID,21.2405,VALID,3,VALID,0.409375,
2012-05-20, 02:56:04,VALID,915.617,VALID,0,VALID,95.5519,VALID,0,VALID,21.2226,VALID,3,VALID,0.0652344,
2012-05-20, 02:57:04,VALID,915.595,VALID,0,VALID,95.5443,VALID,0,VALID,21.2015,VALID,3,VALID,0.212891,
2012-05-20, 02:58:04,VALID,915.564,VALID,0,VALID,95.468,VALID,0,VALID,21.2015,VALID,3,VALID,0.342578,
2012-05-20, 02:59:04,VALID,915.559,VALID,0,VALID,95.4452,VALID,0,VALID,21.2421,VALID,3,VALID,0.205469,
2012-05-20, 03:00:04,VALID,915.57,VALID,0,VALID,95.3842,VALID,0,VALID,21.2015,VALID,2,VALID,0.00429688,
2012-05-20, 03:01:04,VALID,915.56,VALID,0,VALID,95.3613,VALID,0,VALID,21.2015,VALID,2,VALID,0,
2012-05-20, 03:02:04,VALID,915.551,VALID,0,VALID,95.3994,VALID,0,VALID,21.1819,VALID,3,VALID,0.0808594,
2012-05-20, 03:03:04,VALID,915.555,VALID,0,VALID,95.4604,VALID,0,VALID,21.1836,VALID,2,VALID,0,
2012-05-20, 03:04:04,VALID,915.554,VALID,0,VALID,95.4909,VALID,0,VALID,21.1836,VALID,2,VALID,0,
2012-05-20, 03:05:04,VALID,915.547,VALID,0,VALID,95.5367,VALID,0,VALID,21.1836,VALID,2,VALID,0,
2012-05-20, 03:06:04,VALID,915.551,VALID,0,VALID,95.5748,VALID,0,VALID,21.164,VALID,2,VALID,0,
2012-05-20, 03:07:04,VALID,915.57,VALID,0,VALID,95.59,VALID,0,VALID,21.1234,VALID,2,VALID,0,
2012-05-20, 03:08:04,VALID,915.528,VALID,0,VALID,95.4757,VALID,0,VALID,21.1055,VALID,3,VALID,0,
2012-05-20, 03:09:04,VALID,915.541,VALID,0,VALID,95.5443,VALID,0,VALID,21.086,VALID,3,VALID,0,
2012-05-20, 03:10:04,VALID,915.498,VALID,0,VALID,95.651,VALID,0,VALID,21.0454,VALID,2,VALID,0.244531,
2012-05-20, 03:11:04,VALID,915.511,VALID,0,VALID,95.7425,VALID,0,VALID,21.047,VALID,3,VALID,0.15,
2012-05-20, 03:12:04,VALID,915.5,VALID,0,VALID,95.773,VALID,0,VALID,21.047,VALID,3,VALID,0,
2012-05-20, 03:13:04,VALID,915.51,VALID,0,VALID,95.8645,VALID,0,VALID,21.008,VALID,2,VALID,0,
2012-05-20, 03:14:04,VALID,915.508,VALID,0,VALID,95.8416,VALID,0,VALID,21.008,VALID,2,VALID,0,
2012-05-20, 03:15:04,VALID,915.512,VALID,0,VALID,95.9026,VALID,0,VALID,20.9885,VALID,2,VALID,0,
2012-05-20, 03:16:04,VALID,915.541,VALID,0,VALID,95.9483,VALID,0,VALID,20.9885,VALID,2,VALID,0,
2012-05-20, 03:17:04,VALID,915.517,VALID,0,VALID,96.0093,VALID,0,VALID,20.9885,INVALID,360,VALID,0,
2012-05-20, 03:18:04,VALID,915.478,VALID,0,VALID,96.0398,VALID,0,VALID,20.9674,VALID,3,VALID,0,
2012-05-20, 03:19:04,VALID,915.476,VALID,0,VALID,96.0703,VALID,0,VALID,20.9885,VALID,3,VALID,0,
2012-05-20, 03:20:04,VALID,915.477,VALID,0,VALID,96.0932,VALID,0,VALID,20.9885,VALID,2,VALID,0,
2012-05-20, 03:21:04,VALID,915.439,VALID,0,VALID,96.116,VALID,0,VALID,20.9885,VALID,3,VALID,0,
2012-05-20, 03:22:04,VALID,915.408,VALID,0,VALID,96.1008,VALID,0,VALID,20.9495,VALID,3,VALID,0,
2012-05-20, 03:23:04,VALID,915.4,VALID,0,VALID,96.1313,VALID,0,VALID,20.9495,VALID,3,VALID,0,
2012-05-20, 03:24:04,VALID,915.378,VALID,0,VALID,96.177,VALID,0,VALID,20.9511,VALID,3,VALID,0,
2012-05-20, 03:25:04,VALID,915.375,VALID,0,VALID,96.1923,VALID,0,VALID,20.9495,VALID,2,VALID,0,
2012-05-20, 03:26:04,VALID,915.404,VALID,0,VALID,96.3219,VALID,0,VALID,20.9885,VALID,2,VALID,0,
2012-05-20, 03:27:04,VALID,915.441,VALID,0,VALID,96.3829,VALID,0,VALID,21.0275,VALID,3,VALID,0,
2012-05-20, 03:28:04,VALID,915.433,VALID,0,VALID,96.421,VALID,0.107441,VALID,21.0275,VALID,3,VALID,0,
2012-05-20, 03:29:04,VALID,915.407,VALID,0,VALID,96.4057,VALID,0,VALID,21.047,VALID,3,VALID,0,
2012-05-20, 03:30:04,VALID,915.385,VALID,0,VALID,96.36,VALID,0,VALID,21.0275,VALID,3,VALID,0,
2012-05-20, 03:31:04,VALID,915.405,VALID,0,VALID,96.3142,VALID,0,VALID,20.9869,VALID,2,VALID,0,
2012-05-20, 03:32:04,VALID,915.401,VALID,0,VALID,96.36,VALID,0,VALID,20.9885,VALID,3,VALID,0,
2012-05-20, 03:33:04,VALID,915.433,VALID,0,VALID,96.4133,VALID,0,VALID,20.969,VALID,3,VALID,0,
2012-05-20, 03:34:04,VALID,915.439,VALID,0,VALID,96.4438,VALID,0,VALID,20.9674,VALID,3,VALID,0,
2012-05-20, 03:35:04,VALID,915.484,VALID,0,VALID,96.4591,VALID,0,VALID,21.008,VALID,3,VALID,0,
2012-05-20, 03:36:04,VALID,915.466,VALID,0,VALID,96.4743,VALID,0,VALID,20.9869,VALID,3,VALID,0,
2012-05-20, 03:37:04,VALID,915.504,VALID,0,VALID,96.5201,VALID,0,VALID,21.0064,VALID,2,VALID,0,
2012-05-20, 03:38:04,VALID,915.49,VALID,0,VALID,96.5353,VALID,0,VALID,20.9869,VALID,2,VALID,0,
2012-05-20, 03:39:04,VALID,915.483,VALID,0,VALID,96.5734,VALID,0,VALID,21.0259,VALID,3,VALID,0,
2012-05-20, 03:40:04,VALID,915.503,VALID,0,VALID,96.5429,VALID,0,VALID,21.0275,VALID,2,VALID,0,
2012-05-20, 03:41:04,VALID,915.527,VALID,0,VALID,96.4896,VALID,0,VALID,20.9869,VALID,2,VALID,0,
2012-05-20, 03:42:04,VALID,915.531,VALID,0,VALID,96.5582,VALID,0,VALID,20.9885,VALID,2,VALID,0,
2012-05-20, 03:43:04,VALID,915.511,VALID,0,VALID,96.5811,VALID,0,VALID,21.008,VALID,2,VALID,0,
2012-05-20, 03:44:04,VALID,915.511,VALID,0,VALID,96.6268,VALID,0,VALID,21.0064,VALID,3,VALID,0,
2012-05-20, 03:45:04,VALID,915.487,VALID,0,VALID,96.6344,VALID,0,VALID,21.047,VALID,2,VALID,0,
2012-05-20, 03:46:04,VALID,915.438,VALID,0,VALID,96.6573,VALID,0,VALID,21.0259,VALID,3,VALID,0,
2012-05-20, 03:47:04,VALID,915.44,VALID,0,VALID,96.642,VALID,0,VALID,21.0665,VALID,2,VALID,0,
2012-05-20, 03:48:04,VALID,915.437,VALID,0,VALID,96.6268,VALID,0,VALID,21.0665,VALID,3,VALID,0,
2012-05-20, 03:49:04,VALID,915.39,VALID,0,VALID,96.6344,VALID,0,VALID,21.0665,VALID,2,VALID,0,
2012-05-20, 03:50:04,VALID,915.35,VALID,0,VALID,96.6802,VALID,0,VALID,21.0649,VALID,2,VALID,0,
2012-05-20, 03:51:04,VALID,915.348,VALID,0,VALID,96.6725,VALID,0,VALID,21.0844,VALID,2,VALID,0,
2012-05-20, 03:52:04,VALID,915.35,VALID,0,VALID,96.6649,VALID,0,VALID,21.086,VALID,2,VALID,0,
2012-05-20, 03:53:04,VALID,915.372,VALID,0,VALID,96.6497,VALID,0,VALID,21.086,VALID,2,VALID,0,
2012-05-20, 03:54:04,VALID,915.388,VALID,0,VALID,96.6039,VALID,0,VALID,21.0454,VALID,3,VALID,0.411719,
2012-05-20, 03:55:04,VALID,915.392,VALID,0,VALID,96.6039,VALID,0,VALID,21.0665,VALID,3,VALID,0.395703,